Weather History for San Jose, CA

Change the Weather History Date:

Sunday, November 24, 2013

  Actual Average Record
Temperature  
Mean Temperature 53 °F 55 °F  
Max Temperature 65 °F 65 °F 75 °F (1959)
Min Temperature 41 °F 45 °F 25 °F (1895)
Degree Days  
Heating Degree Days 12 10  
Month to date heating degree days 192 180  
Since 1 July heating degree days 317 262  
Cooling Degree Days 0 0  
Month to date cooling degree days 0 0  
Year to date cooling degree days 549 728  
Growing Degree Days 3 (Base 50)    
Moisture  
Dew Point 39 °F    
Average Humidity 62    
Maximum Humidity 89    
Minimum Humidity 34    
Precipitation  
Precipitation 0.00 in 0.06 in 1.00 in (1896)
Month to date precipitation 0.77 1.49  
Year to date precipitation 3.67 12.39  
Since 1 July precipitation 1.43 2.50  
Sea Level Pressure  
Sea Level Pressure 30.18 in    
Wind  
Wind Speed 3 mph (West)    
Max Wind Speed 10 mph    
Max Gust Speed 13 mph    
Visibility 10 miles    
Events      
T = Trace of Precipitation, MM = Missing Value Source: NWS Daily Summary

Daily Weather History Graph

Daily Weather History Graph

Search for Another Location

Airport:

Trip Planner

Search our weather history database for the weather conditions in past years. The results will help you decide how hot, cold, wet, or windy it might be!

Date:

Astronomy

Nov. 24, 2013 Rise Set
Actual Time 6:56 AM PST 4:52 PM PST
Civil Twilight 6:28 AM PST 5:20 PM PST
Nautical Twilight 5:56 AM PST 5:52 PM PST
Astronomical Twilight 5:25 AM PST 6:23 PM PST
Moon 11:18 PM PST (11/24) 11:50 AM PST (11/24)
Length of Visible Light 10h 52m
Length of Day
9h 55m
Waning Gibbous, 59% of the Moon is Illuminated
Nov 24
Waning Gibbous
Nov 25
Last Quarter
Dec 2
New
Dec 9
First Quarter
Dec 17
Full

Hourly Weather History & Observations

Time (PST) Temp. Windchill Dew Point Humidity Pressure Visibility Wind Dir Wind Speed Gust Speed Precip Events Conditions
12:53 AM 46.9 °F - 41.0 °F 80% 30.12 in 10.0 mi SSE 3.5 mph - N/A   Clear
1:53 AM 45.0 °F - 39.9 °F 82% 30.12 in 10.0 mi Calm Calm - N/A   Clear
2:53 AM 45.0 °F - 39.9 °F 82% 30.12 in 10.0 mi Calm Calm - N/A   Clear
3:53 AM 45.0 °F - 39.9 °F 82% 30.12 in 10.0 mi Calm Calm - N/A   Clear
4:53 AM 44.1 °F - 39.0 °F 82% 30.13 in 10.0 mi Calm Calm - N/A   Clear
5:53 AM 42.1 °F - 39.0 °F 89% 30.15 in 10.0 mi Calm Calm - N/A   Clear
6:53 AM 43.0 °F 41.3 °F 37.9 °F 82% 30.17 in 10.0 mi SE 3.5 mph - N/A   Clear
7:53 AM 44.1 °F 40.8 °F 39.0 °F 82% 30.18 in 10.0 mi East 5.8 mph - N/A   Clear
8:53 AM 48.9 °F - 41.0 °F 74% 30.20 in 10.0 mi Calm Calm - N/A   Clear
9:53 AM 53.1 °F - 41.0 °F 64% 30.21 in 10.0 mi Calm Calm - N/A   Clear
10:53 AM 57.9 °F - 41.0 °F 53% 30.21 in 10.0 mi Calm Calm - N/A   Clear
11:53 AM 61.0 °F - 39.9 °F 46% 30.19 in 10.0 mi Calm Calm - N/A   Clear
12:53 PM 63.0 °F - 37.9 °F 40% 30.17 in 10.0 mi NW 3.5 mph - N/A   Partly Cloudy
1:53 PM 64.0 °F - 37.9 °F 38% 30.17 in 10.0 mi WNW 8.1 mph - N/A   Partly Cloudy
2:53 PM 64.0 °F - 36.0 °F 35% 30.17 in 10.0 mi NW 9.2 mph - N/A   Partly Cloudy
3:53 PM 63.0 °F - 37.9 °F 40% 30.17 in 10.0 mi WNW 9.2 mph - N/A   Clear
4:53 PM 59.0 °F - 39.0 °F 48% 30.18 in 10.0 mi WNW 8.1 mph - N/A   Clear
5:53 PM 57.0 °F - 37.9 °F 49% 30.20 in 10.0 mi WNW 5.8 mph - N/A   Clear
6:53 PM 54.0 °F - 39.0 °F 57% 30.22 in 10.0 mi Calm Calm - N/A   Clear
7:53 PM 53.1 °F - 39.9 °F 61% 30.23 in 10.0 mi South 3.5 mph - N/A   Clear
8:53 PM 52.0 °F - 41.0 °F 66% 30.24 in 10.0 mi Calm Calm - N/A   Clear
9:53 PM 50.0 °F - 41.0 °F 71% 30.25 in 10.0 mi Calm Calm - N/A   Clear
10:53 PM 48.9 °F - 41.0 °F 74% 30.26 in 10.0 mi Calm Calm - N/A   Clear
11:53 PM 46.9 °F - 41.0 °F 80% 30.26 in 10.0 mi East 3.5 mph - N/A   Clear